Regional Weather Roundup
Issued by NWS

Home | Current Version | Previous Version | Graphics & Text | Print | Product List | Glossary On
Versions: 1 2 3 4 5 6 7 8 9 10 11 12 13 14 15 16 17 18 19 20 21 22 23 24 25 26 27 28 29 30 31 32 33 34 35 36 37 38 39 40 41 42 43 44 45 46 47 48 49 50
000
ASUS45 KTFX 050410
RWRMT
MONTANA REGIONAL WEATHER ROUNDUP
NATIONAL WEATHER SERVICE GREAT FALLS MT
1000 PM MDT SAT JUL 04 2015

NOTE: "FAIR" INDICATES FEW OR NO CLOUDS BELOW 12000 FEET WITH NO
SIGNIFICANT WEATHER AND/OR OBSTRUCTIONS TO VISIBILITY.

MTZ001>007-043-050500-
WEST OF THE DIVIDE

CITY           SKY/WX    TMP DP  RH WIND       PRES   REMARKS
KALISPELL      CLEAR     77  43  29 W5        29.75R
MISSOULA       MOCLDY    81  36  19 W8        29.78R
BUTTE          MOCLDY    79  36  21 N8        29.93R
MULLAN PASS    CLEAR     70  38  31 VRB3      30.01S
DEER LODGE       N/A     75  39  27 CALM      29.90R
EUREKA           N/A     84  45  24 CALM      29.74R
HAMILTON         N/A     79  45  29 SE6       29.82R
LIBBY            N/A     79  46  31 SE6       29.75R
PLAINS           N/A     83  47  28 CALM      29.78R
RONAN            N/A     78  48  34 W2        29.85R
$$

MTZ008-052>055-050500-
SOUTHWEST MONTANA

CITY           SKY/WX    TMP DP  RH WIND       PRES   REMARKS
BOZEMAN        MOCLDY    76  49  38 S12       29.83R
DILLON         MOCLDY    72  36  26 SE10      29.88R
W YELLOWSTONE  MOCLDY    72  41  33 SW8       30.05R
THREE FORKS      N/A     77  55  46 CALM      29.83R
TWIN BRIDGES     N/A     78  36  22 NE3       29.88R
$$

MTZ009-010-012-014-046-048-049-054-050500-
EAST SLOPES AND CENTRAL MONTANA

CITY           SKY/WX    TMP DP  RH WIND       PRES   REMARKS
CUT BANK       MOCLDY    56  54  93 N24G38    29.97R
GREAT FALLS    PTCLDY    75  51  43 E6        29.78R
MALMSTROM AFB  PTCLDY    76  52  43 NE8       29.78R
HELENA         MOCLDY    84  50  30 W8        29.79R
CONRAD           N/A     70  60  70 NW30      29.94R
$$

MTZ011-013-016-021-045-047-050-051-050500-
NORTH CENTRAL MONTANA

CITY           SKY/WX    TMP DP  RH WIND       PRES   REMARKS
HAVRE          PTCLDY    75  54  46 E10G24    29.77R THUNDER
LEWISTOWN      MOCLDY    75  55  49 E17       29.85S
CHINOOK          N/A     75  52  43 NW8G20    29.80R
FORT BENTON      N/A     79  55  44 NE7       29.76R
$$

MTZ017>020-022>027-061-062-050500-
NORTHEAST MONTANA

CITY           SKY/WX    TMP DP  RH WIND       PRES   REMARKS
GLASGOW        CLEAR     72  53  51 NE16      29.79S
JORDAN           N/A     76  57  51 NE12      29.80R
SIDNEY         CLEAR     73  64  73 N14       29.78R
WOLF POINT     CLEAR     74  56  53 NE12      29.80R
PLENTYWOOD       N/A     64  57  77 N8        29.84S
POPLAR           N/A     72  61  68 N9G16     29.81R
SCOBEY           N/A     65  50  58 N8        29.85F
$$

MTZ028>42-056>058-050500-
SOUTHCENTRAL AND SOUTHEAST MONTANA

CITY           SKY/WX    TMP DP  RH WIND       PRES   REMARKS
BAKER          CLEAR     68  58  70 S6        29.79S
BILLINGS       PTCLDY    82  44  26 NE9       29.80R
LIVINGSTON     PTCLDY    77  46  33 SE8       29.86R
MILES CITY     PTCLDY    79  54  41 N3        29.76R
EKALAKA          N/A     75  53  46 SE9       29.82R
FORSYTH          N/A     79  55  44 CALM      29.75R
LAUREL           N/A     79  44  28 N1        29.82R
ROUNDUP          N/A     80  52  37 N7        29.76R
$$

REGIONAL REPORTS...DAKOTAS

CITY           SKY/WX    TMP DP  RH WIND       PRES   REMARKS
WILLISTON      CLEAR     73  66  78 N18       29.79R
MINOT          MOCLDY    68  62  81 SW7       29.72F
DICKINSON      PTCLDY    69  65  86 SW6       29.76R
BEACH          FAIR      64  64 100 N5        29.80R
CROSBY         FAIR      66  66 100 N9        29.82S
BISMARCK       PTCLDY    77  70  79 S6        29.74S
GRAND FORKS    CLOUDY    76  66  71 S13       29.70F
FARGO          MOCLDY    77  65  66 S13       29.77F
BUFFALO SD       N/A     75  52  44 SE9       29.73R
RAPID CITY     PTCLDY    70  65  84 CALM      29.82R
$$

REGIONAL REPORTS...WYOMING/IDAHO/WASHINGTON

CITY           SKY/WX    TMP DP  RH WIND       PRES   REMARKS
GILLETTE       PTCLDY    72  49  44 S10       29.86R
SHERIDAN       PTCLDY    71  59  65 SW3       29.82R
BUFFALO WY     MOCLDY    74  52  46 W9        29.92R
CODY           PTCLDY    81  41  24 NW7       29.91R
YELLOWSTONE LA   N/A     61  39  44 CALM      30.18R
IDAHO FALLS    CLOUDY    77  48  35 SW10      29.88R
SALMON         CLOUDY    82  43  24 S8        29.79R
BOISE          CLOUDY    89  44  20 NE5       29.75S
SPOKANE        PTCLDY    90  38  16 NW9       29.71R
$$

REGIONAL REPORTS...ALBERTA

CITY           SKY/WX    TMP DP  RH WIND       PRES   REMARKS
EDMONTON       CLEAR     59  43  55 NW8       30.02R
CALGARY        CLOUDY    55  46  71 NW15G22   30.13R
LETHBRIDGE     LGT RAIN  55  54  94 NE13G24   30.06R
MEDICINE HAT   LGT RAIN  57  52  82 N17G26    29.99R
WATERTON GATE    N/A     52  50  93 NE14G22     N/A
CARDSTON         N/A     52  52 100 N14G21      N/A
MILK RIVER       N/A     54  52  94 NE29G38     N/A
ONEFOUR          N/A     59  55  88 NE14        N/A
$$

REGIONAL REPORTS...SASKATCHEWAN

CITY           SKY/WX    TMP DP  RH WIND       PRES   REMARKS
SWIFT CURRENT  CLOUDY    66  46  48 NE10      29.91R HAZE
REGINA         PTCLDY    66  61  82 N5        29.84S SMOKE
SASKATOON      CLOUDY    59  48  67 SW5       29.89R SMOKE
CYPRESS HILLS    N/A     54  46  76 NW5         N/A
VAL MARIE        N/A     64  54  68 E8          N/A
ASSINIBOIA       N/A     59  45  58 W14G20      N/A
$$


USA.gov is the U.S. government's official web portal to all federal, state and local government web resources and services.